Location: Cherryland
(37.6794°N, 122.1033°W)
Time: 14:34:30
(UTC+00:00)

OAO 3 Rocket - Pass Details

Date: 14 December 2025
Orbit: 613 x 661 km, 35.0° (Epoch: 17 January)

Event Time Altitude Azimuth Distance (km) Brightness Sun altitude
Exits shadow 13:35:48 33° 242° (WSW) 1,053 3.8 -19.2°
Maximum altitude 13:37:42 61° 175° (S) 711 3.4 -18.8°
Drops below altitude 10° 13:42:19 10° 95° (E) 2,012 6.9 -17.9°
Sets 13:44:42 0° 92° (E) 2,930 8.0 -17.5°
